軌道要素
Epoch 2008 May 14.0 TT = JDT 2454600.5
T 2008 May 4.65654 TT MPC
q 1.5535858 (2000.0) P Q
n 0.15623664 Peri. 163.89861 +0.70745926 -0.67666596
a 3.4141357 Node 240.52510 +0.61983295 +0.73273488
e 0.5449549 Incl. 13.55349 +0.33957108 +0.07226877
P 6.31
From 47 observations 2001 Aug. 1-2014 Sept. 3, mean residual 0".7.
|